カタログに戻る

STARLINK-37837

運用中通信SSO
NORAD 69665·PAYLOAD·🇺🇸 United States

打ち上げ Jun 21, 2026 から Vandenberg Space Force Base

Loading…

次のパス (今後24時間)

TLE

最新Source: CelesTrak SupGP

元期: Sep 15, 2026, 03:07 UTC

1 69665C 26143S   26258.13034722 -.00011814  00000+0 -36674-3 0  2586
2 69665  97.2844 301.3154 0001335  87.2634 295.2094 15.33445294    19

AllMySatでSTARLINK-37837をリアルタイム追跡

Download on the App Store